| time (UTC) | temp F | wind direction | speed MPH | gust MPH | rain 1hr in | rain 24hr in | rain mn in | humidity % | barometer mb |
| 20260502130535 | 39 | 239 | 1.0 | 3.0 | 0.01 | 0.10 | 0.10 | 95 | 1009.7 |
| 20260502123531 | 39 | 202 | 1.0 | 4.0 | 0.03 | 0.10 | 0.10 | 96 | 1009.8 |
| 20260502123044 | 39 | 227 | 0.0 | 2.0 | 0.03 | 0.10 | 0.10 | 96 | 1009.9 |
| 20260502122531 | 39 | 227 | 0.0 | 4.0 | 0.03 | 0.10 | 0.10 | 96 | 1009.8 |
| 20260502122028 | 39 | 0 | 1.0 | 4.0 | 0.03 | 0.10 | 0.10 | 96 | 1009.7 |
| 20260502121544 | 39 | 0 | 1.0 | 4.0 | 0.03 | 0.10 | 0.10 | 95 | 1009.7 |
| 20260502121030 | 39 | 228 | 1.0 | 3.0 | 0.03 | 0.10 | 0.10 | 96 | 1009.6 |
| 20260502120531 | 39 | 0 | 1.0 | 2.0 | 0.02 | 0.09 | 0.09 | 96 | 1009.7 |
| 20260502115530 | 39 | 0 | 1.0 | 3.0 | 0.01 | 0.08 | 0.08 | 96 | 1009.5 |
| 20260502115031 | 39 | 0 | 0.0 | 4.0 | 0.00 | 0.07 | 0.07 | 96 | 1009.5 |
| 20260502114608 | 39 | 0 | 1.0 | 4.0 | 0.00 | 0.07 | 0.07 | 96 | 1009.5 |
| 20260502114032 | 39 | 0 | 0.0 | 3.0 | 0.00 | 0.07 | 0.07 | 96 | 1009.6 |
| 20260502113534 | 39 | 0 | 0.0 | 3.0 | 0.00 | 0.07 | 0.07 | 96 | 1009.6 |
| 20260502113045 | 38 | 100 | 1.0 | 3.0 | 0.00 | 0.07 | 0.07 | 95 | 1009.6 |
| 20260502112535 | 38 | 100 | 2.0 | 3.0 | 0.01 | 0.07 | 0.07 | 95 | 1009.5 |
| 20260502112031 | 38 | 100 | 1.0 | 3.0 | 0.01 | 0.07 | 0.07 | 95 | 1009.5 |
| 20260502111545 | 39 | 100 | 1.0 | 3.0 | 0.01 | 0.07 | 0.07 | 95 | 1009.5 |
| 20260502111044 | 38 | 0 | 0.0 | 3.0 | 0.01 | 0.07 | 0.07 | 95 | 1009.5 |
| 20260502110529 | 38 | 217 | 0.0 | 4.0 | 0.01 | 0.07 | 0.07 | 95 | 1009.4 |
| 20260502110046 | 38 | 0 | 1.0 | 4.0 | 0.01 | 0.07 | 0.07 | 95 | 1009.4 |
| 20260502105532 | 38 | 0 | 0.0 | 3.0 | 0.01 | 0.08 | 0.07 | 95 | 1009.4 |
| 20260502105030 | 38 | 0 | 0.0 | 3.0 | 0.01 | 0.08 | 0.07 | 95 | 1009.4 |
| 20260502104544 | 38 | 0 | 0.0 | 4.0 | 0.01 | 0.08 | 0.07 | 95 | 1009.4 |
| 20260502104030 | 38 | 182 | 0.0 | 4.0 | 0.01 | 0.08 | 0.07 | 95 | 1009.3 |
| 20260502103529 | 38 | 174 | 0.0 | 3.0 | 0.01 | 0.08 | 0.07 | 95 | 1009.4 |
| 20260502103041 | 38 | 153 | 0.0 | 4.0 | 0.00 | 0.07 | 0.06 | 95 | 1009.4 |
| 20260502102532 | 38 | 194 | 0.0 | 4.0 | 0.00 | 0.07 | 0.06 | 95 | 1009.4 |
| 20260502102030 | 38 | 194 | 1.0 | 4.0 | 0.00 | 0.07 | 0.06 | 95 | 1009.4 |
| 20260502101555 | 38 | 0 | 0.0 | 2.0 | 0.00 | 0.07 | 0.06 | 95 | 1009.2 |
| 20260502101030 | 38 | 0 | 0.0 | 3.0 | 0.00 | 0.07 | 0.06 | 95 | 1009.1 |
| 20260502100529 | 38 | 0 | 1.0 | 4.0 | 0.00 | 0.07 | 0.06 | 95 | 1008.9 |
| 20260502091029 | 38 | 0 | 0.0 | 3.0 | 0.01 | 0.07 | 0.06 | 94 | 1009.4 |
| 20260502090532 | 38 | 138 | 0.0 | 3.0 | 0.01 | 0.07 | 0.06 | 94 | 1009.5 |
| 20260502071028 | 38 | 0 | 0.0 | 0.0 | 0.01 | 0.02 | 0.01 | 93 | 1009.5 |
| 20260502070529 | 38 | 0 | 0.0 | 0.0 | 0.01 | 0.02 | 0.01 | 93 | 1009.5 |
| 20260502070048 | 38 | 0 | 0.0 | 0.0 | 0.01 | 0.02 | 0.01 | 93 | 1009.6 |
| 20260502065529 | 38 | 0 | 0.0 | 0.0 | 0.01 | 0.02 | 0.01 | 93 | 1009.6 |
| 20260502065030 | 38 | 0 | 0.0 | 0.0 | 0.00 | 0.01 | 0.00 | 93 | 1009.7 |
| 20260502064613 | 38 | 0 | 0.0 | 0.0 | 0.00 | 0.01 | 0.00 | 92 | 1009.6 |
| 20260502064029 | 38 | 0 | 0.0 | 0.0 | 0.00 | 0.01 | 0.00 | 92 | 1009.8 |
| 20260502063529 | 38 | 0 | 0.0 | 2.0 | 0.00 | 0.01 | 0.00 | 92 | 1009.7 |
| 20260502063054 | 38 | 0 | 0.0 | 3.0 | 0.00 | 0.01 | 0.00 | 92 | 1009.8 |
| 20260502062529 | 38 | 0 | 0.0 | 4.0 | 0.00 | 0.01 | 0.00 | 91 | 1009.8 |
| 20260502062030 | 38 | 86 | 1.0 | 4.0 | 0.00 | 0.01 | 0.00 | 91 | 1009.8 |
| 20260502061543 | 38 | 102 | 1.0 | 4.0 | 0.00 | 0.01 | 0.00 | 91 | 1009.8 |
| 20260502061029 | 38 | 110 | 1.0 | 4.0 | 0.00 | 0.01 | 0.00 | 91 | 1010.0 |
| 20260502060529 | 38 | 74 | 2.0 | 4.0 | 0.00 | 0.01 | 0.00 | 90 | 1010.0 |
| 20260502060045 | 38 | 115 | 1.0 | 3.0 | 0.00 | 0.01 | 0.00 | 90 | 1010.1 |
| 20260502055532 | 38 | 0 | 0.0 | 6.0 | 0.00 | 0.01 | 0.00 | 90 | 1010.1 |
| 20260502055029 | 38 | 116 | 1.0 | 6.0 | 0.00 | 0.01 | 0.00 | 89 | 1010.1 |
| 20260502054538 | 38 | 122 | 1.0 | 4.0 | 0.00 | 0.01 | 0.00 | 89 | 1010.2 |
| 20260502054028 | 38 | 122 | 1.0 | 4.0 | 0.00 | 0.01 | 0.00 | 88 | 1010.1 |
| 20260502053529 | 38 | 205 | 1.0 | 3.0 | 0.00 | 0.01 | 0.00 | 88 | 1010.2 |
| 20260502053055 | 38 | 107 | 1.0 | 3.0 | 0.00 | 0.01 | 0.00 | 88 | 1010.1 |
| 20260502052533 | 39 | 109 | 0.0 | 6.0 | 0.00 | 0.01 | 0.00 | 87 | 1010.3 |
| 20260502052030 | 39 | 221 | 1.0 | 6.0 | 0.00 | 0.01 | 0.00 | 87 | 1010.7 |
| 20260502051545 | 39 | 277 | 2.0 | 4.0 | 0.00 | 0.01 | 0.00 | 86 | 1010.6 |
| 20260502051032 | 39 | 258 | 2.0 | 4.0 | 0.00 | 0.01 | 0.00 | 85 | 1010.6 |
| 20260502050529 | 39 | 225 | 2.0 | 9.0 | 0.00 | 0.01 | 0.00 | 84 | 1010.6 |
| 20260502050047 | 39 | 0 | 1.0 | 9.0 | 0.00 | 0.01 | 0.00 | 83 | 1010.5 |
| 20260502045529 | 40 | 240 | 2.0 | 9.0 | 0.00 | 0.01 | 0.00 | 82 | 1010.4 |
| 20260502045028 | 40 | 206 | 3.0 | 6.0 | 0.00 | 0.01 | 0.00 | 81 | 1010.4 |
| 20260502044542 | 40 | 267 | 3.0 | 8.0 | 0.00 | 0.01 | 0.00 | 80 | 1010.4 |
| 20260502044029 | 40 | 266 | 2.0 | 8.0 | 0.00 | 0.01 | 0.00 | 80 | 1010.5 |
| 20260502043531 | 40 | 277 | 3.0 | 8.0 | 0.00 | 0.01 | 0.00 | 79 | 1010.5 |
| 20260502043117 | 40 | 259 | 2.0 | 7.0 | 0.00 | 0.01 | 0.00 | 78 | 1010.5 |
| 20260502042529 | 41 | 232 | 1.0 | 7.0 | 0.00 | 0.01 | 0.00 | 78 | 1010.4 |
| 20260502042029 | 41 | 227 | 2.0 | 7.0 | 0.00 | 0.01 | 0.00 | 77 | 1010.4 |
| 20260502041556 | 41 | 259 | 0.0 | 4.0 | 0.00 | 0.01 | 0.00 | 76 | 1010.6 |
| 20260502041030 | 41 | 0 | 1.0 | 6.0 | 0.00 | 0.01 | 0.00 | 75 | 1010.7 |
| 20260502040531 | 41 | 262 | 1.0 | 9.0 | 0.00 | 0.01 | 0.00 | 75 | 1010.5 |
| 20260502040045 | 41 | 236 | 2.0 | 11.0 | 0.00 | 0.01 | 0.00 | 75 | 1010.5 |
| 20260502035528 | 41 | 246 | 4.0 | 12.0 | 0.00 | 0.01 | 0.01 | 73 | 1010.5 |
| 20260502035032 | 42 | 269 | 5.0 | 12.0 | 0.00 | 0.01 | 0.01 | 72 | 1010.5 |
| 20260502034544 | 42 | 231 | 3.0 | 8.0 | 0.00 | 0.01 | 0.01 | 70 | 1010.4 |
| 20260502034030 | 42 | 246 | 3.0 | 8.0 | 0.00 | 0.01 | 0.01 | 69 | 1010.4 |
| 20260502033531 | 42 | 229 | 3.0 | 8.0 | 0.00 | 0.01 | 0.01 | 68 | 1010.4 |
| 20260502033047 | 42 | 0 | 0.0 | 3.0 | 0.00 | 0.01 | 0.01 | 66 | 1010.3 |
| 20260502032529 | 42 | 0 | 0.0 | 0.0 | 0.00 | 0.01 | 0.01 | 66 | 1010.2 |
| 20260502032029 | 42 | 0 | 0.0 | 0.0 | 0.00 | 0.01 | 0.01 | 66 | 1010.2 |
| 20260502031545 | 42 | 0 | 0.0 | 0.0 | 0.00 | 0.01 | 0.01 | 65 | 1010.3 |
| 20260502031029 | 42 | 0 | 0.0 | 2.0 | 0.00 | 0.01 | 0.01 | 65 | 1010.3 |
| 20260502030529 | 42 | 0 | 0.0 | 5.0 | 0.00 | 0.01 | 0.01 | 65 | 1010.2 |
| 20260502030048 | 42 | 254 | 0.0 | 6.0 | 0.00 | 0.01 | 0.01 | 65 | 1010.2 |
| 20260502025528 | 42 | 254 | 0.0 | 6.0 | 0.00 | 0.01 | 0.01 | 65 | 1010.1 |
| 20260502025030 | 42 | 0 | 0.0 | 2.0 | 0.00 | 0.01 | 0.01 | 65 | 1010.1 |
| 20260502024542 | 42 | 0 | 0.0 | 2.0 | 0.00 | 0.01 | 0.01 | 65 | 1010.2 |
| 20260502024029 | 42 | 218 | 0.0 | 0.0 | 0.00 | 0.01 | 0.01 | 65 | 1010.3 |
| 20260502023529 | 42 | 0 | 0.0 | 1.0 | 0.00 | 0.01 | 0.01 | 64 | 1010.4 |
| 20260502023040 | 42 | 0 | 0.0 | 3.0 | 0.00 | 0.01 | 0.01 | 64 | 1010.4 |
| 20260502022528 | 43 | 218 | 0.0 | 5.0 | 0.00 | 0.01 | 0.01 | 64 | 1010.4 |
| 20260502022032 | 43 | 218 | 1.0 | 7.0 | 0.00 | 0.01 | 0.01 | 64 | 1010.3 |
| 20260502021542 | 43 | 256 | 2.0 | 8.0 | 0.00 | 0.01 | 0.01 | 64 | 1010.3 |
| 20260502021030 | 43 | 252 | 2.0 | 11.0 | 0.00 | 0.01 | 0.01 | 64 | 1010.2 |
| 20260502020533 | 43 | 261 | 3.0 | 11.0 | 0.00 | 0.01 | 0.01 | 63 | 1010.2 |
| 20260502020040 | 43 | 263 | 3.0 | 8.0 | 0.00 | 0.01 | 0.01 | 62 | 1010.3 |
| 20260502015529 | 43 | 230 | 2.0 | 8.0 | 0.00 | 0.01 | 0.01 | 62 | 1010.3 |
| 20260502015029 | 44 | 232 | 2.0 | 8.0 | 0.00 | 0.01 | 0.01 | 61 | 1010.2 |
| 20260502014610 | 44 | 212 | 3.0 | 8.0 | 0.00 | 0.01 | 0.01 | 61 | 1010.4 |
| 20260502014028 | 44 | 241 | 3.0 | 9.0 | 0.00 | 0.01 | 0.01 | 60 | 1010.4 |
| 20260502013528 | 44 | 255 | 3.0 | 10.0 | 0.00 | 0.01 | 0.01 | 60 | 1010.4 |
| 20260502013050 | 44 | 250 | 4.0 | 10.0 | 0.00 | 0.01 | 0.01 | 60 | 1010.5 |
| 20260502012529 | 44 | 252 | 3.0 | 12.0 | 0.00 | 0.01 | 0.01 | 60 | 1010.5 |
| 20260502012031 | 44 | 245 | 3.0 | 12.0 | 0.00 | 0.01 | 0.01 | 59 | 1010.4 |
| 20260502011545 | 44 | 260 | 4.0 | 12.0 | 0.00 | 0.01 | 0.01 | 58 | 1010.4 |
| 20260502011028 | 44 | 254 | 5.0 | 12.0 | 0.00 | 0.01 | 0.01 | 57 | 1010.4 |
| 20260502010529 | 44 | 242 | 4.0 | 11.0 | 0.00 | 0.01 | 0.01 | 57 | 1010.5 |
| 20260502010044 | 44 | 258 | 4.0 | 11.0 | 0.00 | 0.01 | 0.01 | 57 | 1010.4 |
| 20260502005529 | 44 | 207 | 4.0 | 11.0 | 0.00 | 0.01 | 0.01 | 56 | 1010.4 |
| 20260502005031 | 44 | 251 | 3.0 | 10.0 | 0.00 | 0.01 | 0.01 | 55 | 1010.3 |
| 20260502004544 | 45 | 225 | 3.0 | 10.0 | 0.00 | 0.01 | 0.01 | 55 | 1010.3 |
| 20260502004028 | 45 | 249 | 4.0 | 10.0 | 0.00 | 0.01 | 0.01 | 55 | 1010.2 |
| 20260502003528 | 45 | 240 | 3.0 | 11.0 | 0.00 | 0.01 | 0.01 | 55 | 1010.2 |
| 20260502003046 | 45 | 252 | 4.0 | 11.0 | 0.00 | 0.01 | 0.01 | 54 | 1010.1 |
| 20260502002528 | 45 | 238 | 4.0 | 10.0 | 0.00 | 0.01 | 0.01 | 54 | 1010.0 |
| 20260502002029 | 45 | 220 | 3.0 | 10.0 | 0.00 | 0.01 | 0.01 | 53 | 1010.0 |
| 20260502001544 | 45 | 291 | 4.0 | 10.0 | 0.00 | 0.01 | 0.01 | 52 | 1009.9 |
| 20260502001029 | 45 | 256 | 4.0 | 12.0 | 0.00 | 0.01 | 0.01 | 52 | 1009.7 |
| 20260502000531 | 45 | 244 | 4.0 | 12.0 | 0.00 | 0.01 | 0.01 | 52 | 1009.7 |
| 20260502000043 | 45 | 260 | 4.0 | 11.0 | 0.00 | 0.01 | 0.01 | 51 | 1009.5 |
| 20260501235528 | 45 | 239 | 4.0 | 15.0 | 0.00 | 0.01 | 0.01 | 51 | 1009.5 |
| 20260501235029 | 45 | 245 | 3.0 | 15.0 | 0.00 | 0.01 | 0.01 | 51 | 1009.5 |
| 20260501234545 | 46 | 261 | 4.0 | 10.0 | 0.00 | 0.01 | 0.01 | 51 | 1009.4 |
| 20260501234028 | 46 | 244 | 4.0 | 11.0 | 0.00 | 0.01 | 0.01 | 50 | 1009.4 |
| 20260501233531 | 46 | 244 | 5.0 | 11.0 | 0.00 | 0.01 | 0.01 | 49 | 1009.4 |
| 20260501233043 | 46 | 242 | 3.0 | 11.0 | 0.00 | 0.01 | 0.01 | 48 | 1009.4 |
| 20260501232528 | 46 | 244 | 4.0 | 9.0 | 0.00 | 0.01 | 0.01 | 48 | 1009.3 |
| 20260501232035 | 47 | 231 | 3.0 | 8.0 | 0.00 | 0.01 | 0.01 | 47 | 1009.3 |
| 20260501231538 | 47 | 259 | 4.0 | 9.0 | 0.00 | 0.01 | 0.01 | 47 | 1009.1 |
| 20260501231029 | 47 | 250 | 3.0 | 10.0 | 0.00 | 0.01 | 0.01 | 46 | 1009.2 |
| 20260501230529 | 48 | 271 | 4.0 | 12.0 | 0.00 | 0.01 | 0.01 | 46 | 1009.1 |
| 20260501230046 | 48 | 236 | 3.0 | 13.0 | 0.00 | 0.01 | 0.01 | 44 | 1009.1 |
| 20260501225529 | 48 | 166 | 5.0 | 13.0 | 0.00 | 0.01 | 0.01 | 44 | 1009.0 |
| 20260501225028 | 49 | 227 | 5.0 | 11.0 | 0.00 | 0.01 | 0.01 | 45 | 1009.0 |
| 20260501224544 | 49 | 242 | 5.0 | 11.0 | 0.00 | 0.01 | 0.01 | 44 | 1008.9 |
| 20260501224028 | 50 | 250 | 4.0 | 13.0 | 0.00 | 0.01 | 0.01 | 43 | 1008.8 |
| 20260501223612 | 50 | 240 | 3.0 | 13.0 | 0.00 | 0.01 | 0.01 | 44 | 1008.9 |
| 20260501223046 | 50 | 225 | 5.0 | 13.0 | 0.00 | 0.01 | 0.01 | 43 | 1008.9 |
| 20260501222534 | 50 | 281 | 3.0 | 15.0 | 0.00 | 0.01 | 0.01 | 44 | 1008.7 |
| 20260501222032 | 50 | 225 | 6.0 | 15.0 | 0.00 | 0.01 | 0.01 | 43 | 1008.9 |
| 20260501221545 | 50 | 248 | 8.0 | 18.0 | 0.00 | 0.01 | 0.01 | 43 | 1008.8 |
| 20260501221034 | 50 | 224 | 5.0 | 18.0 | 0.00 | 0.01 | 0.01 | 44 | 1008.7 |
| 20260501220535 | 50 | 211 | 5.0 | 16.0 | 0.00 | 0.01 | 0.01 | 45 | 1008.8 |
| 20260501220046 | 50 | 228 | 3.0 | 12.0 | 0.00 | 0.01 | 0.01 | 45 | 1008.7 |
| 20260501215533 | 50 | 188 | 3.0 | 10.0 | 0.00 | 0.01 | 0.01 | 46 | 1008.8 |
| 20260501215033 | 50 | 247 | 4.0 | 14.0 | 0.00 | 0.01 | 0.01 | 46 | 1008.9 |
| 20260501214546 | 50 | 248 | 4.0 | 14.0 | 0.00 | 0.01 | 0.01 | 46 | 1008.8 |
| 20260501214033 | 50 | 269 | 5.0 | 11.0 | 0.00 | 0.01 | 0.01 | 47 | 1008.8 |
| 20260501213532 | 49 | 249 | 4.0 | 13.0 | 0.00 | 0.01 | 0.01 | 47 | 1008.8 |
| 20260501213048 | 49 | 238 | 5.0 | 13.0 | 0.00 | 0.01 | 0.01 | 46 | 1008.6 |
| 20260501212532 | 50 | 223 | 7.0 | 13.0 | 0.00 | 0.01 | 0.01 | 45 | 1008.7 |
| 20260501212032 | 49 | 288 | 7.0 | 17.0 | 0.00 | 0.01 | 0.01 | 46 | 1008.7 |
| 20260501211549 | 49 | 283 | 5.0 | 17.0 | 0.00 | 0.01 | 0.01 | 45 | 1008.8 |
| 20260501211034 | 50 | 262 | 5.0 | 17.0 | 0.00 | 0.01 | 0.01 | 44 | 1008.7 |
| 20260501210532 | 51 | 198 | 6.0 | 14.0 | 0.00 | 0.01 | 0.01 | 43 | 1008.8 |
| 20260501210045 | 51 | 255 | 4.0 | 11.0 | 0.00 | 0.01 | 0.01 | 43 | 1008.7 |
| 20260501205532 | 51 | 265 | 5.0 | 11.0 | 0.00 | 0.01 | 0.01 | 45 | 1008.7 |
| 20260501205033 | 50 | 231 | 4.0 | 13.0 | 0.00 | 0.01 | 0.01 | 44 | 1008.7 |
| 20260501204558 | 51 | 245 | 4.0 | 13.0 | 0.00 | 0.01 | 0.01 | 44 | 1008.8 |
| 20260501204035 | 51 | 223 | 5.0 | 11.0 | 0.00 | 0.01 | 0.01 | 42 | 1008.6 |
| 20260501203533 | 51 | 291 | 5.0 | 9.0 | 0.00 | 0.01 | 0.01 | 44 | 1008.6 |
| 20260501203040 | 50 | 269 | 3.0 | 9.0 | 0.00 | 0.01 | 0.01 | 45 | 1008.7 |
| 20260501202533 | 51 | 244 | 3.0 | 11.0 | 0.00 | 0.01 | 0.01 | 44 | 1008.7 |
| 20260501202033 | 51 | 232 | 3.0 | 11.0 | 0.00 | 0.01 | 0.01 | 44 | 1008.6 |
| 20260501201546 | 52 | 263 | 4.0 | 11.0 | 0.00 | 0.01 | 0.01 | 42 | 1008.6 |
| 20260501201032 | 53 | 244 | 3.0 | 10.0 | 0.00 | 0.01 | 0.01 | 42 | 1008.6 |
| 20260501200533 | 53 | 248 | 4.0 | 10.0 | 0.00 | 0.01 | 0.01 | 42 | 1008.5 |
| 20260501200046 | 52 | 243 | 4.0 | 10.0 | 0.00 | 0.01 | 0.01 | 44 | 1008.6 |
| 20260501195533 | 52 | 265 | 5.0 | 10.0 | 0.00 | 0.01 | 0.01 | 43 | 1008.6 |
| 20260501195032 | 51 | 290 | 6.0 | 9.0 | 0.00 | 0.01 | 0.01 | 45 | 1008.5 |
| 20260501194547 | 51 | 261 | 4.0 | 8.0 | 0.00 | 0.01 | 0.01 | 44 | 1008.4 |
| 20260501194034 | 51 | 239 | 2.0 | 12.0 | 0.00 | 0.01 | 0.01 | 43 | 1008.5 |
| 20260501193532 | 51 | 251 | 4.0 | 12.0 | 0.00 | 0.01 | 0.01 | 45 | 1008.5 |
| 20260501193046 | 50 | 269 | 5.0 | 11.0 | 0.00 | 0.01 | 0.01 | 44 | 1008.6 |
| 20260501192532 | 51 | 268 | 5.0 | 12.0 | 0.00 | 0.01 | 0.01 | 43 | 1008.6 |
| 20260501192033 | 51 | 286 | 4.0 | 14.0 | 0.00 | 0.01 | 0.01 | 44 | 1008.6 |
| 20260501191545 | 52 | 252 | 6.0 | 14.0 | 0.00 | 0.01 | 0.01 | 41 | 1008.7 |
| 20260501191033 | 53 | 248 | 7.0 | 14.0 | 0.00 | 0.01 | 0.01 | 40 | 1008.8 |
| 20260501190534 | 54 | 312 | 6.0 | 14.0 | 0.00 | 0.01 | 0.01 | 39 | 1008.7 |
| 20260501190044 | 54 | 277 | 3.0 | 10.0 | 0.00 | 0.01 | 0.01 | 40 | 1008.8 |
| 20260501185533 | 53 | 56 | 3.0 | 10.0 | 0.00 | 0.01 | 0.01 | 41 | 1008.9 |
| 20260501185036 | 52 | 194 | 4.0 | 10.0 | 0.00 | 0.01 | 0.01 | 44 | 1008.7 |
| 20260501184546 | 51 | 301 | 5.0 | 9.0 | 0.00 | 0.01 | 0.01 | 44 | 1008.9 |
| 20260501184033 | 51 | 240 | 3.0 | 9.0 | 0.00 | 0.01 | 0.01 | 45 | 1009.1 |
| 20260501183536 | 50 | 277 | 4.0 | 10.0 | 0.00 | 0.01 | 0.01 | 47 | 1009.1 |
| 20260501183053 | 50 | 273 | 5.0 | 12.0 | 0.00 | 0.01 | 0.01 | 47 | 1009.1 |
| 20260501182533 | 51 | 273 | 6.0 | 12.0 | 0.00 | 0.01 | 0.01 | 46 | 1009.0 |
| 20260501182032 | 51 | 306 | 6.0 | 16.0 | 0.00 | 0.01 | 0.01 | 46 | 1009.0 |
| 20260501181544 | 50 | 273 | 3.0 | 16.0 | 0.00 | 0.01 | 0.01 | 47 | 1009.0 |
| 20260501181032 | 50 | 259 | 7.0 | 15.0 | 0.00 | 0.01 | 0.01 | 46 | 1009.0 |
| 20260501180533 | 50 | 234 | 6.0 | 13.0 | 0.00 | 0.01 | 0.01 | 46 | 1009.0 |
| 20260501180049 | 50 | 242 | 6.0 | 13.0 | 0.00 | 0.01 | 0.01 | 45 | 1009.1 |
| 20260501175533 | 51 | 232 | 6.0 | 14.0 | 0.00 | 0.06 | 0.01 | 44 | 1009.1 |
| 20260501175032 | 51 | 288 | 5.0 | 15.0 | 0.00 | 0.06 | 0.01 | 48 | 1009.0 |
| 20260501174544 | 50 | 264 | 7.0 | 16.0 | 0.00 | 0.06 | 0.01 | 45 | 1009.1 |
| 20260501174032 | 51 | 253 | 8.0 | 16.0 | 0.00 | 0.06 | 0.01 | 43 | 1009.0 |
| 20260501173532 | 51 | 250 | 4.0 | 15.0 | 0.00 | 0.06 | 0.01 | 44 | 1009.1 |
| 20260501173048 | 50 | 213 | 4.0 | 15.0 | 0.00 | 0.06 | 0.01 | 46 | 1009.0 |
| 20260501172532 | 50 | 206 | 7.0 | 15.0 | 0.00 | 0.06 | 0.01 | 45 | 1008.9 |
| 20260501172032 | 50 | 221 | 7.0 | 15.0 | 0.00 | 0.06 | 0.01 | 47 | 1009.0 |
| 20260501171552 | 50 | 237 | 6.0 | 16.0 | 0.00 | 0.06 | 0.01 | 46 | 1009.1 |
| 20260501171032 | 50 | 284 | 6.0 | 16.0 | 0.00 | 0.06 | 0.01 | 45 | 1009.0 |
| 20260501170532 | 50 | 216 | 8.0 | 17.0 | 0.00 | 0.06 | 0.01 | 46 | 1009.0 |
| 20260501170046 | 49 | 277 | 7.0 | 17.0 | 0.00 | 0.06 | 0.01 | 49 | 1008.9 |
| 20260501165532 | 49 | 175 | 8.0 | 16.0 | 0.00 | 0.07 | 0.01 | 45 | 1008.8 |
| 20260501165034 | 49 | 264 | 7.0 | 15.0 | 0.00 | 0.07 | 0.01 | 46 | 1009.0 |
| 20260501164546 | 49 | 150 | 6.0 | 15.0 | 0.00 | 0.07 | 0.01 | 48 | 1009.1 |
| 20260501164032 | 49 | 178 | 6.0 | 15.0 | 0.00 | 0.07 | 0.01 | 47 | 1009.1 |
| 20260501163531 | 49 | 263 | 4.0 | 16.0 | 0.00 | 0.07 | 0.01 | 49 | 1009.1 |
| 20260501163054 | 48 | 246 | 7.0 | 16.0 | 0.00 | 0.07 | 0.01 | 48 | 1009.1 |
| 20260501162534 | 49 | 268 | 6.0 | 12.0 | 0.00 | 0.07 | 0.01 | 48 | 1009.1 |
| 20260501162032 | 48 | 279 | 4.0 | 17.0 | 0.00 | 0.07 | 0.01 | 50 | 1009.1 |
| 20260501161542 | 47 | 306 | 5.0 | 17.0 | 0.00 | 0.07 | 0.01 | 50 | 1009.2 |
| 20260501161033 | 48 | 257 | 6.0 | 15.0 | 0.00 | 0.07 | 0.01 | 48 | 1009.1 |
| 20260501160532 | 49 | 272 | 6.0 | 15.0 | 0.00 | 0.07 | 0.01 | 50 | 1009.2 |
| 20260501160048 | 49 | 255 | 4.0 | 10.0 | 0.00 | 0.07 | 0.01 | 50 | 1009.2 |
| 20260501155534 | 48 | 248 | 4.0 | 15.0 | 0.00 | 0.07 | 0.01 | 52 | 1009.1 |
| 20260501155033 | 47 | 259 | 5.0 | 15.0 | 0.00 | 0.07 | 0.01 | 50 | 1009.3 |
| 20260501154549 | 47 | 306 | 5.0 | 14.0 | 0.00 | 0.07 | 0.01 | 52 | 1009.2 |
| 20260501154032 | 47 | 238 | 5.0 | 17.0 | 0.00 | 0.07 | 0.01 | 53 | 1009.1 |
| 20260501153532 | 46 | 271 | 7.0 | 17.0 | 0.00 | 0.07 | 0.01 | 55 | 1009.2 |
| 20260501153047 | 46 | 203 | 6.0 | 17.0 | 0.00 | 0.07 | 0.01 | 55 | 1009.2 |
| 20260501152533 | 45 | 269 | 7.0 | 15.0 | 0.00 | 0.07 | 0.01 | 56 | 1009.0 |
| 20260501152032 | 45 | 279 | 7.0 | 22.0 | 0.00 | 0.07 | 0.01 | 57 | 1009.0 |
| 20260501151552 | 44 | 264 | 9.0 | 22.0 | 0.00 | 0.07 | 0.01 | 57 | 1009.0 |
| 20260501151033 | 44 | 234 | 10.0 | 22.0 | 0.00 | 0.07 | 0.01 | 58 | 1008.9 |
| 20260501150531 | 45 | 250 | 9.0 | 21.0 | 0.00 | 0.07 | 0.01 | 58 | 1008.8 |
| 20260501150044 | 45 | 200 | 7.0 | 20.0 | 0.00 | 0.07 | 0.01 | 59 | 1009.0 |
| 20260501145536 | 45 | 331 | 6.0 | 17.0 | 0.00 | 0.07 | 0.01 | 58 | 1009.0 |
| 20260501145034 | 45 | 244 | 7.0 | 15.0 | 0.00 | 0.07 | 0.01 | 61 | 1009.1 |
| 20260501144550 | 44 | 259 | 5.0 | 17.0 | 0.00 | 0.07 | 0.01 | 62 | 1009.0 |
| 20260501144033 | 44 | 233 | 7.0 | 17.0 | 0.00 | 0.07 | 0.01 | 60 | 1009.1 |
| 20260501143532 | 44 | 277 | 6.0 | 19.0 | 0.00 | 0.07 | 0.01 | 60 | 1009.1 |
| 20260501143051 | 43 | 209 | 7.0 | 19.0 | 0.00 | 0.07 | 0.01 | 63 | 1009.0 |
| 20260501142532 | 44 | 269 | 6.0 | 18.0 | 0.00 | 0.07 | 0.01 | 63 | 1008.9 |
| 20260501142032 | 43 | 281 | 6.0 | 18.0 | 0.00 | 0.07 | 0.01 | 64 | 1008.9 |
| 20260501141542 | 42 | 269 | 8.0 | 18.0 | 0.00 | 0.07 | 0.01 | 65 | 1008.9 |
| 20260501141032 | 42 | 264 | 5.0 | 17.0 | 0.00 | 0.07 | 0.01 | 70 | 1008.9 |
| 20260501140533 | 42 | 319 | 8.0 | 20.0 | 0.00 | 0.07 | 0.01 | 66 | 1008.8 |
| 20260501140044 | 42 | 288 | 8.0 | 20.0 | 0.00 | 0.07 | 0.01 | 68 | 1008.8 |
| 20260501135532 | 42 | 225 | 5.0 | 16.0 | 0.00 | 0.07 | 0.01 | 70 | 1008.7 |
| 20260501135031 | 41 | 246 | 8.0 | 16.0 | 0.00 | 0.07 | 0.01 | 69 | 1008.6 |